Tracking 19709 objects as of 19-Jun-2019
HD Live streaming from Space Station
objects crossing your sky now

CZ-4 DEB

Track CZ-4 DEB now!
10-day predictions


NORAD ID: 28067
Int'l Code: 1999-057MX
Perigee: 673.7 km
Apogee: 805.0 km
Inclination: 98.6 °
Period: 99.4 minutes
Semi major axis: 7110 km
RCS: 0.0053 m2 (small)
Launch date: October 14, 1999
Source: People's Republic of China (PRC)
Launch site: Taiyaun Space Center, China (TSC)

Note: This is SATELLITE DEBRIS
aabbcc
Your satellite tracking list
Your tracking list is empty




NASA's NSSDC Master Catalog

Two Line Element Set (TLE):
1 28067U 99057MX  19170.19599932 -.00000014  00000-0  93895-5 0  9993
2 28067  98.5753 162.0230 0092302 354.1051   5.9047 14.47997402872325
Source of the keplerian elements: AFSPC